• în România
  • Lista ţărilor
  • Pe 7 zile
  • Temperatura apei
  • Hartă satelitară
  • Meteo pe hartă
  • Widget-uri
  • user-avatar
    Intrare

    Meteo pe oră la Uryady

    Astăzi, 19 August, Duminică

    Timp Temperatura Precipitaţii Vânt Presiune Umiditate
    00:00 +9°C° 0 mm 3 m/s 755 mmHg 88%
    01:00 +8°C° 0 mm 3 m/s 755 mmHg 89%
    02:00 +8°C° 0 mm 3 m/s 755 mmHg 90%
    03:00 +7°C° 0 mm 2 m/s 755 mmHg 91%
    04:00 +7°C° 0 mm 2 m/s 755 mmHg 92%
    05:00 +8°C° 0 mm 2 m/s 755 mmHg 89%
    06:00 +9°C° 0 mm 2 m/s 755 mmHg 86%
    07:00 +10°C° 0 mm 2 m/s 756 mmHg 83%
    08:00 +12°C° 0 mm 3 m/s 755 mmHg 77%
    09:00 +13°C° 0 mm 3 m/s 755 mmHg 71%
    10:00 +16°C° 0 mm 3 m/s 755 mmHg 65%
    11:00 +17°C° 0 mm 3 m/s 755 mmHg 62%
    12:00 +18°C° 0 mm 3 m/s 755 mmHg 59%
    13:00 +19°C° 0 mm 3 m/s 754 mmHg 56%
    14:00 +19°C° 0 mm 3 m/s 754 mmHg 56%
    15:00 +19°C° 0 mm 3 m/s 754 mmHg 57%
    16:00 +19°C° 0 mm 3 m/s 754 mmHg 58%
    17:00 +18°C° 0 mm 3 m/s 754 mmHg 64%
    18:00 +16°C° 0 mm 2 m/s 754 mmHg 71%
    19:00 +15°C° 0 mm 2 m/s 753 mmHg 77%
    20:00 +14°C° 0 mm 2 m/s 754 mmHg 80%
    21:00 +13°C° 0 mm 2 m/s 754 mmHg 83%
    22:00 +12°C° 0 mm 2 m/s 754 mmHg 86%
    23:00 +11°C° 0 mm 1 m/s 754 mmHg 87%

    Mâine, 20 August, Luni

    Timp Temperatura Precipitaţii Vânt Presiune Umiditate
    00:00 +11°C° 0 mm 1 m/s 754 mmHg 88%
    01:00 +10°C° 0 mm 1 m/s 754 mmHg 90%
    02:00 +10°C° 0 mm 1 m/s 754 mmHg 90%
    03:00 +9°C° 0 mm 1 m/s 753 mmHg 90%
    04:00 +9°C° 0 mm 1 m/s 753 mmHg 90%
    05:00 +9°C° 0 mm 0 m/s 753 mmHg 87%
    06:00 +10°C° 0 mm 0 m/s 753 mmHg 85%
    07:00 +11°C° 0 mm 0 m/s 753 mmHg 82%
    08:00 +14°C° 0 mm 1 m/s 753 mmHg 76%
    09:00 +16°C° 0 mm 1 m/s 753 mmHg 70%
    10:00 +19°C° 0 mm 1 m/s 753 mmHg 63%
    11:00 +19°C° 0 mm 1 m/s 753 mmHg 60%
    12:00 +19°C° 0 mm 2 m/s 752 mmHg 57%
    13:00 +20°C° 0 mm 2 m/s 752 mmHg 55%
    14:00 +20°C° 0 mm 2 m/s 752 mmHg 56%
    15:00 +20°C° 0 mm 2 m/s 751 mmHg 57%
    16:00 +20°C° 0 mm 2 m/s 751 mmHg 58%
    17:00 +19°C° 0 mm 2 m/s 751 mmHg 64%
    18:00 +18°C° 0 mm 2 m/s 751 mmHg 71%
    19:00 +17°C° 0 mm 2 m/s 751 mmHg 77%
    20:00 +16°C° 0 mm 2 m/s 750 mmHg 78%
    21:00 +16°C° 0 mm 2 m/s 750 mmHg 79%
    22:00 +15°C° 0 mm 2 m/s 750 mmHg 81%
    23:00 +14°C° 0,2 mm 3 m/s 750 mmHg 83%

    Poimâine, 21 August, Marţi

    Timp Temperatura Precipitaţii Vânt Presiune Umiditate
    00:00 +14°C° 0,2 mm 3 m/s 749 mmHg 85%
    01:00 +14°C° 0,2 mm 3 m/s 749 mmHg 87%
    02:00 +14°C° 0,4 mm 3 m/s 749 mmHg 90%
    03:00 +14°C° 0,4 mm 3 m/s 749 mmHg 93%
    04:00 +14°C° 0,4 mm 3 m/s 748 mmHg 95%
    05:00 +14°C° 0,1 mm 3 m/s 748 mmHg 96%
    06:00 +16°C° 0,1 mm 3 m/s 748 mmHg 96%
    07:00 +16°C° 0,1 mm 3 m/s 748 mmHg 97%
    08:00 +17°C° 0 mm 3 m/s 748 mmHg 95%
    09:00 +17°C° 0 mm 3 m/s 748 mmHg 93%
    10:00 +18°C° 0 mm 3 m/s 749 mmHg 92%
    11:00 +19°C° 0,1 mm 3 m/s 749 mmHg 89%
    12:00 +20°C° 0,1 mm 3 m/s 749 mmHg 85%
    13:00 +20°C° 0,1 mm 3 m/s 749 mmHg 82%
    14:00 +21°C° 0 mm 3 m/s 748 mmHg 80%
    15:00 +21°C° 0 mm 2 m/s 748 mmHg 77%
    16:00 +23°C° 0 mm 2 m/s 748 mmHg 74%
    17:00 +21°C° 0,1 mm 2 m/s 748 mmHg 78%
    18:00 +20°C° 0,1 mm 2 m/s 748 mmHg 82%
    19:00 +21°C° 0,1 mm 1 m/s 748 mmHg 85%
    20:00 +19°C° 0,1 mm 2 m/s 748 mmHg 88%
    21:00 +18°C° 0,1 mm 2 m/s 748 mmHg 91%
    22:00 +17°C° 0,1 mm 2 m/s 748 mmHg 94%
    23:00 +17°C° 0,1 mm 2 m/s 747 mmHg 94%

    22 August, Miercuri

    Timp Temperatura Precipitaţii Vânt Presiune Umiditate
    00:00 +17°C° 0,1 mm 2 m/s 747 mmHg 95%
    01:00 +16°C° 0,1 mm 2 m/s 747 mmHg 95%
    02:00 +16°C° 0 mm 2 m/s 747 mmHg 95%
    03:00 +16°C° 0 mm 3 m/s 746 mmHg 95%
    04:00 +16°C° 0 mm 3 m/s 746 mmHg 94%
    05:00 +16°C° 0 mm 3 m/s 746 mmHg 92%
    06:00 +17°C° 0 mm 3 m/s 746 mmHg 90%
    07:00 +17°C° 0 mm 3 m/s 746 mmHg 88%
    08:00 +19°C° 0 mm 4 m/s 745 mmHg 82%
    09:00 +20°C° 0 mm 4 m/s 745 mmHg 76%
    10:00 +22°C° 0 mm 4 m/s 745 mmHg 70%
    11:00 +23°C° 0,1 mm 5 m/s 745 mmHg 65%
    12:00 +25°C° 0,1 mm 5 m/s 745 mmHg 61%
    13:00 +26°C° 0,1 mm 6 m/s 744 mmHg 57%
    14:00 +24°C° 0,4 mm 6 m/s 744 mmHg 61%
    15:00 +24°C° 0,4 mm 6 m/s 744 mmHg 65%
    16:00 +23°C° 0,4 mm 5 m/s 744 mmHg 70%
    17:00 +21°C° 0,8 mm 5 m/s 744 mmHg 77%
    18:00 +19°C° 0,8 mm 4 m/s 745 mmHg 84%
    19:00 +17°C° 0,8 mm 3 m/s 745 mmHg 91%
    20:00 +17°C° 0,3 mm 3 m/s 745 mmHg 93%
    21:00 +16°C° 0,3 mm 3 m/s 745 mmHg 94%
    22:00 +14°C° 0,3 mm 3 m/s 745 mmHg 95%
    23:00 +13°C° 0,1 mm 3 m/s 745 mmHg 95%

    23 August, Joi

    Timp Temperatura Precipitaţii Vânt Presiune Umiditate
    00:00 +12°C° 0,1 mm 3 m/s 745 mmHg 96%
    01:00 +11°C° 0,1 mm 3 m/s 745 mmHg 96%
    02:00 +11°C° 0 mm 3 m/s 745 mmHg 96%
    03:00 +10°C° 0 mm 3 m/s 745 mmHg 96%
    04:00 +10°C° 0 mm 3 m/s 746 mmHg 96%
    05:00 +10°C° 0 mm 3 m/s 746 mmHg 95%
    06:00 +10°C° 0 mm 4 m/s 746 mmHg 94%
    07:00 +10°C° 0 mm 4 m/s 747 mmHg 93%
    08:00 +10°C° 0 mm 5 m/s 747 mmHg 88%
    09:00 +12°C° 0 mm 5 m/s 748 mmHg 84%
    10:00 +12°C° 0 mm 5 m/s 748 mmHg 80%
    11:00 +13°C° 0 mm 5 m/s 748 mmHg 76%
    12:00 +13°C° 0 mm 6 m/s 748 mmHg 72%
    13:00 +14°C° 0 mm 6 m/s 748 mmHg 68%
    14:00 +14°C° 0,1 mm 6 m/s 749 mmHg 66%
    15:00 +14°C° 0,1 mm 6 m/s 749 mmHg 64%
    16:00 +14°C° 0,1 mm 6 m/s 749 mmHg 63%
    17:00 +13°C° 0,1 mm 5 m/s 749 mmHg 68%
    18:00 +12°C° 0,1 mm 4 m/s 749 mmHg 74%
    19:00 +12°C° 0,1 mm 3 m/s 750 mmHg 80%
    20:00 +11°C° 0 mm 3 m/s 750 mmHg 83%
    21:00 +10°C° 0 mm 3 m/s 750 mmHg 86%
    22:00 +9°C° 0 mm 3 m/s 750 mmHg 89%
    23:00 +8°C° 0 mm 3 m/s 750 mmHg 89%

    24 August, Vineri

    Timp Temperatura Precipitaţii Vânt Presiune Umiditate
    00:00 +8°C° 0 mm 3 m/s 751 mmHg 90%
    01:00 +7°C° 0 mm 3 m/s 751 mmHg 91%
    02:00 +7°C° 0 mm 3 m/s 751 mmHg 91%
    03:00 +7°C° 0 mm 3 m/s 751 mmHg 92%
    04:00 +6°C° 0 mm 4 m/s 751 mmHg 92%
    05:00 +6°C° 0 mm 4 m/s 752 mmHg 90%
    06:00 +7°C° 0 mm 4 m/s 752 mmHg 87%
    07:00 +7°C° 0 mm 4 m/s 752 mmHg 84%
    08:00 +10°C° 0 mm 4 m/s 752 mmHg 78%
    09:00 +12°C° 0 mm 5 m/s 752 mmHg 71%
    10:00 +14°C° 0 mm 5 m/s 752 mmHg 64%
    11:00 +15°C° 0 mm 5 m/s 752 mmHg 62%
    12:00 +16°C° 0 mm 5 m/s 752 mmHg 60%
    13:00 +17°C° 0 mm 5 m/s 752 mmHg 58%
    14:00 +19°C° 0 mm 4 m/s 752 mmHg 61%
    15:00 +19°C° 0 mm 4 m/s 752 mmHg 63%
    16:00 +20°C° 0 mm 4 m/s 752 mmHg 66%
    17:00 +19°C° 0 mm 4 m/s 751 mmHg 72%
    18:00 +18°C° 0 mm 3 m/s 751 mmHg 77%
    19:00 +17°C° 0 mm 2 m/s 751 mmHg 83%
    20:00 +16°C° 0 mm 2 m/s 751 mmHg 86%
    21:00 +15°C° 0 mm 2 m/s 751 mmHg 89%
    22:00 +14°C° 0 mm 2 m/s 751 mmHg 92%
    23:00 +14°C° 0 mm 2 m/s 751 mmHg 93%
    Arată mai mult